SL-16 DEB, 22620

Orbit data source: Space-Track

SL-16 DEB, 22620 is space debris in LEO originally from a launch on Fri, 26 Mar 1993 UTC launched from the Tyuratam Missile And Space Complex (TTMTR). Debris objects in space refer to the collection of defunct objects orbiting the Earth. Examples of debris include non-operational satellites, rocket bodies, and fragments generated from explosions, collisions, or faulty payload assembly.

Loading next visibility...
Identifier
22620, 1993-016AE
Orbit
LEO
Country
Flag of CISCIS
Related business
Manufacturer
Unknown
Mission
Spacecraft
Bus & Motor
Unknown
Mass
Unknown
Launch date (UTC)
1993-03-26 (33 years ago)
Launch vehicle
Unknown
Launch site
Tyuratam Missile And Space Complex (TTMTR)
Object type
Payload
Rocket body
Debris
Shape & HBR
Unknown shape, 0.3 m
Radar Cross Section
Medium (>0.1 m² and <1 m²)

Expand to show TLE details & history
Last TLE update: 16 hours ago

TLE from 16 hours ago
0 SL-16 DEB
1 22620U 93016AE  26124.89147429 -.00000006  00000-0  32827-4 0  9993
2 22620  71.0059 282.3853 0136280 273.4999 251.6953 13.84126727671545
Epoch: 2026-05-04T21:23Z
TLE epoch observation values (Epoch: 2026-05-04T21:23:43.378Z)
Latitude
15.35718°
Longitude
-86.71595°
Altitude
983.548 km
Speed
7.345 km/s
True Right ascension
06h 27m 57s
True Declination
15° 16' 20"
Sunlit
Object was in daylight at epoch
Visualization orbit readout
Latitude
Unknown
Longitude
Unknown
Altitude
Unknown
Speed
Unknown
Apparent Right ascension
Unknown
Apparent Declination
Unknown
Sunlit
N/A
Visualization observer readout
Local Sidereal Time
21:02:40
Azimuth
Unknown
Elevation
Unknown
Doppler factor
Unknown
Orbital elements
Apogee altitude
1,047.071 km
Perigee altitude
847.41 km
Semi-major axis
7,325.377 km
Eccentricity
0.01363
Inclination
71.0059°
RAAN
282.3853°
Arg. of periapsis
273.4999°
True anomaly
250.22072°
Mean anomaly
251.6953°
Eccentric anomaly
250.9572°
Mean motion
3.46177 °/min
Orbital period
103.99 mins
BSTAR
0.000032827
Loading maneuver chart data...
Computing Atmospheric mass density...
Loading historical data...
Loading historical data...
Loading historical data...
Loading historical data...
Loading historical data...
Loading historical data...
Loading historical data...

Documentation

Showing up to 5 results
|